Race Results for
Three Village Tour
Sprague/Baltic, CT
(Event Information)
View By:
Road Race on 09/20/2008

Note: Ranking points are NOT upgrade points. An explanation of ranking points can be found here.


Men - PRO CAT 1/2

 Place Points NameCity, StateTime USAC #BibTeam
1494.96Eneas Freyre   Norwalk, CT1:59:57.53 146736  624 TARGETRAINING
2AMOS BRUMBLE   2:02:46.85  631 
3513.97Daniel Davenport   Guilford, CT2:02:47.05 170381  623 Exodus Road Racing
4523.47Jason Urbanczyk   Millstone Twp, NJ2:06:19.73 51140  635 
5CRAIG LUEKENS   2:06:26.42  634 
6542.48Timothy Mitchell   Ashland, MA2:06:26.47 137395  627 Flatbread-Ottercreek Cycling
7MATT JAMIESON   2:06:26.58  632 
8561.49Hunter Pronovost   Cheshire, CT2:06:26.62 99523  628 CCNS/Pedal Power
9Ron LAROSE   2:06:26.62  626 CCNS / Pedal Power
10CHRISTOPHER HONG   2:07:05.50  633 
11590.00Timothy Unkert   Avon, CO2:07:15.81 60363  630 Stolen Underground Anti Doping

Men - JR - 15-18

 Place Points NameCity, StateTime USAC #BibTeam
1476.19Benjamin Wolfe   Old Lyme, CT0:52:19.62 260405  580 Mystic Velo/Connaughty Chiropra
2492.45Paul Lynch   Colchester, CT0:52:19.78 211959  576 CLNoonan/Coast-to-Coast/KAM
3508.71Evan Kirk   Old Lyme, CT0:53:46.67 257923  575 Mystic Velo Cannaughty Chiropra
4524.97Anson Ross   Plainfield, CT0:53:51.47 250715  578 quinebaug valley velo
5541.23David Gilchrist   Lyme, CT0:53:51.65 260390  573 Mystic Velo Juniors/Connaughty
6557.48Nathan Etchells   Sterling, CT0:53:56.66 276639  572 Mystic Velo-Connaughty Chiropra
7573.74Robert Vossler   West Hartford, CT0:56:33.24 278992  579 US Army/Central Wheel-GHCC
8590.00John Harris   Ledyard, CT0:59:01.67 283275  574 Mystic Velo Juniors

Men - MR - 35-99

 Place Points NameCity, StateTime USAC #BibTeam
1JULIO LUJAMBIO   1:27:35.27  181 
2CIARAN MANGEN   1:27:36.72  183 
3David POTTER   1:27:36.80  174 bikeworks/hallamore
4535.00Massimiliano Accaputo   Glastonbury, CT1:27:36.97 103281  159 CVC/Subaru of New England
5537.30Peter Petrillo   Hamden, CT1:27:37.00 163906  173 CVC/Subaru of New England
6GERALD O'SHEA   1:27:37.04  182 Clinton Cycling Club
7BILL YARBORODY   1:27:37.15  180 NBX
8544.19Robert LaRocco   Manchester, CT1:27:38.43 20388  170 CVC/Subaru of New England
9546.48Chris Crowell   Prospect, CT1:27:38.74 173890  165 Stage 1 / fusionTHINK
10548.78Ronald Jacobs   Needham, MA1:28:02.80 168995  169 Corner Cycle
11551.08John Stonebarger   Iowa City Ia1:28:06.78 120435  178 MBRC/Bicycle Link
12553.37Jeffrey Schwab   Exeter, RI1:28:07.22 183231  176 Arc en Ciel Racing
13STEVE ROSZKO   1:28:18.30  184 
14557.97John Interlandi   Newington, CT1:28:23.63 57611  168 Stage 1 / fusionTHINK
15560.26Mark Paggioli   Glastonbury, CT1:28:24.40 54549  171 CVC Subaru of New England
16562.56Richard Carlton   Glastonbury, CT1:29:46.32 63631  163 CVC/Subaru of New England
17564.86Jayson Hurd   Highlands Ranch, CO1:29:54.21 197001  167 Arc-En-Ciel Racing Team
18567.15Alan Antonelli   Cranston, RI1:32:43.51 189703  160 Bikeworks/ Hallamore
19569.45Steven Bonadio   Arlington, MA1:33:31.10 146541  161 Arc-en-Ciel Racing Team
20571.75Peter Rumsey   Exeter, RI1:33:58.44 141211  175 Arc-En-Ciel Racing Team
21574.04Eric Brassell   Arlington, MA1:35:32.92 4665  162 
22576.34Aaron Davis   Newport, RI1:37:13.93 182106  166 Arc En Ciel

Men - MR - 45-99

 Place Points NameCity, StateTime USAC #BibTeam
1MARK GUNSALUS   1:27:37.85  496 
2BILL THOMPSON   1:27:38.23  497 
3460.85Mark Luzio   Brooklyn, CT1:27:38.36 83266  476 CYCLE FITNESS
4ADAM STERNFIELD   1:27:38.49  491 
5469.18Paul Curley   Taunton, MA1:27:58.93 8380  459 Gearworks/Spinarts
6SKIP FOLEY   1:27:59.01  493 
7RANDY KIRK   1:27:59.08  500 
8481.68Christopher DiMattio   Wilton, CT1:27:59.24 243973  464 Bethel Sport Club
9485.84Robert Bisson   Fall River, MA1:27:59.62 3786  456 Gear Works/Spin Arts
10490.01Scott Hodder   Oceanport, NJ1:28:00.01 46178  470 CRCA/DKNY-Signature Cycles
11494.18Michael Maloney   Chepachet, RI1:28:09.32 65025  477 Cyclonauts Racers
12RICK SPEAR   1:28:17.91  488 
13BRET RUTLEDGE   1:28:18.02  498 
14506.67Thomas Dickinson   Barrington, RI1:28:19.45 270196  463 unattached
15510.84Kelly Parsons   Lyme, CT1:28:22.95 147170  481 Mystic Velo Club
16rider unknown   1:28:38.59  47X MYSTIC VELO
17519.17Mark Dutka   Uncasville, CT1:28:38.94 189103  466 Mystic Velo
18523.34Eugene Petrella   North Andover, MA1:28:40.76 46462  482 360 Racing/Landry's Bicycles
19527.51Robert Burstein   Ellington, CT1:28:58.79 45142  458 capital velo club/Subaru of New
20DEREK ZISK   1:29:56.31  489 
21535.84Casey Gawlak   New Milford, CT1:31:29.23 220180  468 Pawling Cycle & Sport
22540.00Christopher Page   Oakdale, CT1:31:33.96 193402  480 Mystic Velo Club
23544.17Walter Lane   Westerly, RI1:33:58.31 192821  474 Mystic Velo Club
24548.34Wayne Kirk   Old Lyme, CT1:34:32.70 184192  473 Mystic Velo
25552.50Scott Loring   New London, CT1:35:16.22 253383  475 unattached
26556.67Jerome Jacobs   Wayland, MA1:37:13.20 262078  472 NEBC/Cycle Loft/Devonshire Dent
27560.84Charles Dopfel   Wayland, MA1:37:13.40 233595  465 NEBC/Cycle Loft/Devonshire Dent
28565.00Christopher Vossler   W Hartford, CT1:37:13.53 91918  487 US Army/Central Wheel-GHCC
29569.17Marc Tatar   Providence, RI1:43:52.30 245317  486 Bikeworks/Hallamore
30573.33Joseph Horan   Ashland, MA1:44:45.94 222681  471 MinutemanRoadClub
31577.50Jorge Ramirez   Worcester, MAST 145604  483 Cyclonauts Racers
32581.67Kenneth Hamel   Coventry, RIST 120142  469 cyclonauts racers
33ANTHONY SETTEL   ST  494 
34JOHN MORGAN   ST  499 

Men - MR - 55-99

 Place Points NameCity, StateTime USAC #BibTeam
1470.43Bruce Townend   Windsor, MA1:57:29.17 75172  246 Competitive Edge Racing Team
2487.51Mark McCarthy   Fairport, NY1:28:40.25 211211  243 New York Printing Systems
3504.59James Marshall   North Bennington, VT1:29:55.64 218450  242 Competitive Edge Racing Team
4521.67David Burnell   Jamestown, RI1:29:55.87 51491  240 cox communications cycling team
5BOB LEDECKE   1:39:52.23  247 
6555.84Ken Swankie   Guilford, CTST 133637  244 Laurel Bicycle Club-mcra
7572.92James Themig   Niantic, CTST 91637  245 Mystic Velo MCRA
8590.00David Holmander   Epsom, NHST 240201  241 NHCC/Team NH/MCRA

Men - Cat 3

 Place Points NameCity, StateTime USAC #BibTeam
1527.99Ernest Tautkus   Uncasville, CT2:04:58.73 107000  328 Exodus Road Racing
2530.30Stephen Gray   Middletown, CT2:04:58.83 45397  320 Bethel Cycle
3Peter HURST   2:05:05.41  321 Connecticut Coast Cycling
4534.91David Fierro   Gales Ferry, CT2:06:41.98 242328  318 Exodus Road Racing/Pools etc/Br
5537.21Nick Pignatello   Cobalt, CT2:06:42.81 240810  325 Exodus Road Racing
6539.52Jackson Weber   Easthampton, MA2:06:43.10 201447  329 
7541.82Joe Kubisek   Southington, CT2:06:43.11 19935  322 Cheshire Cycle Racing
8544.13Brian Campbell   Waltham, MA2:06:43.12 210587  315 NEBC/Cycle Loft/Devonshire Dent
9LAURENCE MERLING   2:06:43.65  337 
10548.74Brad Warren   Fitchburg, MA2:06:44.03 259600  332 
11CASEY MARKS   2:06:44.15  335 
12GABRIEL CHANDLER   2:06:45.16  338 
13MATT MUNEY   2:06:45.23  334 
14557.96Anthony Parent   Wallingford, CT2:16:42.47 174437  323 CCNS --- Pedal Power
15560.27David Hildebrand   Ellington, CT2:19:34.62 160538  333 

Men - Cat 4

 Place Points NameCity, StateTime USAC #BibTeam
1534.52Bryon Lewis   Monson, MA1:11:25.87 256477  672 Colavita Racing Inc.
2535.59Todd Jakubek   Cambridge, MA1:11:26.19 226906  690 Colavita Racing Inc.
3536.66Jason Moriarty   Stafford Springs, CT1:11:26.28 268020  674 Colavita Racing Inc.
4Graham ANDERSON-21   1:11:26.43  650 Refunds Now
5Peter HEINZ   1:11:26.44  664 Turin Bicycling Society
6539.86esteban sequera   Milford, CT1:11:26.45 272680  699 Eastern Bloc Cycling
7JOE PHENIX   1:11:26.52  692 
8DAVID MAYNARD   1:11:26.55  696 
9543.07Steve Dowsett   Pittsfield, MA1:11:26.61 182115  655 BCA/ tosk
10544.14Stefan Kusurelis   New York, NY1:11:26.63 271859  670 Cadence Cycling
11DAVID KAHN   1:11:26.71  697 
12546.28Michael Harney   Pawcatuck, CT1:11:26.82 200136  660 NBX/Narragansett Beer
13547.34Jeff Hebert   Boston, MA1:11:26.95 219254  663 Boston Road Club
14548.41Guido Wollmann   New Haven, CT1:11:27.00 273741  687 
15549.48Christopher Jordan   Providence, RI1:11:27.11 112584  668 Bikeworks/Hallamore
16550.55David Vieira   Bethel, CT1:11:27.14 48116  685 Bethel Cycle
17551.62Andrew Nasca   Beacon, NY1:11:27.26 275314  675 Bikeway
18552.69Steven Youmatz   Middletown, CT1:11:27.32 266205  688 CCNS/Pedal Power
19553.76Sebastian Dunn   Mars Hill, NC1:11:27.42 191310  656 CVC/Subaru of New England
20554.83Joe Policarpio   Bristol, CT1:11:27.59 135669  679 Cheshire Cycle Racing / Maxxis
21Milos JANICEK   1:11:27.70  667 Mystic Velo
22556.96Chris Petrillo   Granby, CT1:11:27.75 228932  678 CVC/Subaru of New England
23558.03Andrew Tucker   San Francisco, CA1:11:27.80 129801  684 NEBC/Cycle Loft/Devonshire Dent
24559.10Roland Merk   Roxbury, CT1:11:28.00 265200  673 Zephyr Cycling Team
25Peter FERNZILLI   1:11:28.06  658 n/a
26561.24Aaron Hall   Boston, MA1:11:28.22 274578  659 Harvard
27562.31Michael Fairhurst   Jacksonville, FL1:11:28.37 208361  657 unattached
28563.38Michael Brier   Providence, RI1:11:28.53 264873  651 Refunds Now
29Justin NORMAN   1:11:28.63  676 BikeWorks/Hallamore/SVC
30565.51Dennis Desmarais   Glastonbury, CT1:11:28.79 279369  654 CVC Subaru of New England
31566.58charles labbe   Fall River, MA1:11:29.28 259652  671 BikeWorks/Hallamore/SVC
32567.65Chris Butler   Lyme, CT1:11:30.18 245584  652 Epic Velo / Cheshire Cycle
33CHRIS PHENIX   1:11:30.74  693 
34569.79Geoff Martin   Watertown, MA1:11:31.26 180528  694 NEBC/Cycle Loft/Devonshire Dental
35570.86Rob Havemeyer   Smithtown, NY1:13:36.04 265412  661 East End/Kreb Cycle
36571.93James Hoard   N.kingstown Ri1:17:21.59 16347  665 NBX/Narragansett Beer Cycling T
37MORGAN RUECKERT   1:18:24.62  703 
38574.06Victor Cillis   Hyannis, MA1:20:03.87 225167  653 Cape Cod Cyclists/mosaic smalti
39JOHN BONADIES   1:20:05.48  695 
40LEON LYAKOVETSKY   1:20:57.74  700 
41ADAM FRANCIS   1:20:57.76  698 
42578.34Elliot Hawkes   Stanford, CA1:20:57.76 275956  662 
43ROBERT CARMEN   1:20:57.77  702 
44GREGORY HENRY   1:26:11.89  691 
45581.54John Weaver   Groton, CT1:26:33.22 239967  686 Mystic Velo
46JULIO LUJAMBIO   1:27:35.27  181 
47Dwayne MELTAR   ST  350 Mystic Velo
48584.75Guy Zerega   Narragansett, RIST 39456  689 Cox Communications

Men - Cat 5 - 19-29

 Place Points NameCity, StateTime USAC #BibTeam
1540.00Marshall Johnson   Westerly, RI0:49:03.64 271529  274 Brumble Bikes
2545.00Jonathan Dreher   Mercer Island, WA0:49:04.35 282747  272 MIT Cycling / FXDD
3550.00Ryan Lyesiuk   Gardner, MA0:49:04.48 282324  275 
4Corey MORENZ   0:54:29.92  276 
5Mark CHAMPAGNE-20   0:54:30.89  271 Gamache Cyclery
6Daniel BORDEAU   0:55:07.57  270 
7Todd WILLIAMSON   0:55:08.13  280 
8575.00Kyle Gaudet   Exeter, NH1:00:18.87 283217  273 Portsmouth Quailty Flooring
9Damon TURNER   1:00:19.82  279 
10Leigh SPOON   1:00:52.54  278 
11HERBERT MATT   ST  80 

Men - Cat 5 - 30-39

 Place Points NameCity, StateTime USAC #BibTeam
1540.00Joshua Burgel   Concord, MA0:49:05.08 223392  17 
2542.63Lance Mitchell   Ashburn, VA0:50:25.80 304316  31 Minuteman Road Club
3545.26John Badessa   Warwick, RI0:50:54.87 99994  15 Cyclonauts Racers
4Michael BAKER   0:53:08.95  16 cape cod cyclist
5GREG HESTER   0:53:33.42  34 
6Benjamin GEORGE   0:53:54.22  24 
7555.79Cal Lankton   Cambridge, MA0:53:54.83 272663  30 
8Robert HOENICK   0:54:28.43  26 
9SEAN DELUNA   0:54:30.08  33 
10563.68Michal Jacyna   Albany, NY0:54:30.92 260407  27 CBRC
11566.32Tim Curley   Malden, MA0:54:30.98 269256  19 Back Bay Cycling Club
12568.95Vinnie DeFrancesco   Berlin, CT0:54:31.03 272480  20 CVC/Subaru of New England
13571.58Justin Ringling   Westerly, RI0:54:31.64 268211  32 
14574.21Richard Friedrich   N Franklin, CT0:56:12.80 168943  23 nerac earth cycling
15576.84Benjamin Kjoller   Osterville, MA0:56:13.72 276263  28 cape cod cyclist
16David FLAGG   0:58:58.09  22 
17Brian HADIX   1:00:50.83  25 Nerac Earth Cycling
18Ricky AU   1:02:47.55  14 
19David CUNNINGHAM   1:03:30.39  18 
20590.00Glen Koundry   Milford, CT1:03:45.10 284725  29 

Men - Cat 5 - 40-99

 Place Points NameCity, StateTime USAC #BibTeam
1540.00Richard Salit   Barrington, RI0:54:17.32 278961  73 Bikeworks/Hallamore
2TRACY MONTOYA   0:54:17.44  85 
3545.00jonathan tarbox   Windsor, CT0:54:17.59 282269  76 Delta Surveying Services
4547.50Eric Policarpio   Bristol, CT0:54:17.61 159499  70 Bikers Edge
5GLENN VERNES   0:54:18.03  87 
6552.50Richard Cohen   Wakefield, MA0:54:18.31 282780  59 
7555.00Mark Griffon   Salem, NH0:54:18.46 267571  64 CPS
8STEPHEN JUERS   0:54:18.94  86 
9560.00Martin Hansmeier   Keene, NH0:54:19.15 259524  65 Monadnock Cycling Club
10Currie ROY   0:54:19.38  72 SMAC
11Tom MCDONALD   0:55:55.52  68 
12DAVE CARUSO   0:55:57.29  88 
13Doran ABEL   0:56:00.88  57 minuteman road club
14572.50Steve Douville   Andover, CT0:56:38.98 94635  83 
15575.00Thomas Dorazio   Enfield, CT0:56:39.07 281403  60 
16577.50Gregory Wright   West Harwich, MA0:57:52.26 225211  78 Corner Cycle Cape Cod
17580.00Paul Smith   Enfield, CT0:58:28.29 272173  75 CVC/Subaru of New England
18582.50Kevin Pisacich   Hebron, CT0:59:32.63 261222  69 CVC/Subaru of New England
19Daniel DUDZIK   1:01:39.04  62 
20Michael HURLEY   ST  67 
21ERICH FAUST   ST  82 

Women - Cat 1/2/3/4

 Place Points NameCity, StateTime USAC #BibTeam
1KRISTEN GOHR   MA-265719  386 COLAVITA RACING
2Katherine PAPILLON_RODRIGUE   1:19:20.88  384 CVC/Subaru of New England
3525.74Kimberly Edwards   Clinton, CT1:21:41.66 263393  381 CVC/Subaru of New England
4541.80Karen Franzen   Wethersfield, CT1:21:42.88 193702  382 CVC/Subaru of New England
5557.87Carol DeCourcey   Maynard, MA1:27:19.27 52510  380 Boston Scientific Cycling Club
6573.93June Froh   Mystic, CT1:31:22.19 223204  383 Mystic Velo Club
7EMILY SPENCE   1:31:33.54  387 

Report missing or incorrect license numbers

Volkswagen
Bonk BreakerUSACDFSierra NevadaSpyShimano
UCI USA Cycling is the official governing body for all disciplines of competitive cycling in the United States. The 501c3, membership-based organization aims both to achieve sustained success in international cycling competition and to grow competitive cycling in America while delivering an exceptional customer experience.
View Children's Online Privacy Protection Policy
US Olympic Committee